This is the latest recevied weather packets stored in our database for station/object AJ5AG. If no packets are shown the sender has not sent any weather packets the latest 10 day(s).
| Time | Temp. | Humidity | Pressure | Rain* | Wind** | Luminosity | Snow |
|---|---|---|---|---|---|---|---|
| 1777756137 | 22.78° C | 53% | 1021.6 hPa | 0 mm | - | 55 W/m² | - |
| 1777755532 | 23.33° C | 50% | 1021.8 hPa | 0 mm | - | 115 W/m² | - |
| 1777754925 | 23.33° C | 49% | 1021.7 hPa | 0 mm | - | 119 W/m² | - |
| 1777754319 | 23.33° C | 48% | 1021.7 hPa | 0 mm | - | 107 W/m² | - |
| 1777753712 | 23.89° C | 50% | 1021.9 hPa | 0 mm | - | 108 W/m² | - |
| 1777753108 | 23.89° C | 44% | 1021.8 hPa | 0 mm | - | 187 W/m² | - |
| 1777752500 | 23.89° C | 45% | 1021.9 hPa | 0 mm | - | 188 W/m² | - |
| 1777750680 | 24.44° C | 46% | 1022.4 hPa | 0 mm | - | 825 W/m² | - |
| 1777750077 | 23.89° C | 47% | 1022.5 hPa | 0 mm | - | 821 W/m² | - |
| 1777749472 | 23.89° C | 48% | 1022.5 hPa | 0 mm | - | 881 W/m² | - |
| 1777748867 | 23.89° C | 47% | 1022.8 hPa | 0 mm | - | 865 W/m² | - |
| 1777747658 | 23.89° C | 48% | 1022.8 hPa | 0 mm | - | 864 W/m² | - |
| 1777746442 | 23.33° C | 48% | 1023.2 hPa | 0 mm | - | 857 W/m² | - |
| 1777742809 | 22.22° C | 52% | 1023.8 hPa | 0 mm | - | 811 W/m² | - |
| 1777742201 | 21.67° C | 53% | 1023.7 hPa | 0 mm | - | 801 W/m² | - |
| 1777741595 | 21.67° C | 53% | 1023.7 hPa | 0 mm | - | 789 W/m² | - |
| 1777741292 | 21.67° C | 54% | 1024 hPa | 0 mm | - | 776 W/m² | - |
| 1777739775 | 21.67° C | 53% | 1024 hPa | 0 mm | - | 733 W/m² | - |
| 1777739168 | 21.67° C | 60% | 1023.8 hPa | 0 mm | - | 712 W/m² | - |
| 1777738865 | 21.11° C | 61% | 1023.8 hPa | 0 mm | - | 703 W/m² | - |
| 1777738562 | 21.11° C | 66% | 1023.9 hPa | 0 mm | - | 693 W/m² | - |
| 1777738259 | 20.56° C | 63% | 1023.9 hPa | 0 mm | - | 681 W/m² | - |
| 1777737957 | 20.56° C | 68% | 1023.7 hPa | 0 mm | - | 668 W/m² | - |
| 1777737354 | 20.56° C | 67% | 1023.8 hPa | 0 mm | - | 647 W/m² | - |
| 1777737051 | 20.56° C | 69% | 1024 hPa | 0 mm | - | 631 W/m² | - |
* Rain latest hour (hover to see other rain measurements)
** Current wind speed in m/s (hover to see current wind gust speed)